User: anonymous   Login
Location: Lesignano de� Bagni
(44.6500°N, 10.3000°E)
Time: 12:04:10
(UTC+00:00)
Language:

Cosmos 1066 Rocket - Orbit

View from above orbital plane
View from above orbital plane
View from above satellite
View from above satellite

Ground track
Ground track

The orbit data is extracted from the following two-line orbital elements,

1 11166U 78121B   21131.72831140  .00000095  00000-0  42392-4 0  9996
2 11166  81.2415 226.5360 0066810 166.5577 193.7397 14.13775553185015
Epoch (UTC): 11 May 2021 17:28:46
Eccentricity: 0.0066810
inclination: 81.2415°
perigee height: 798 km
apogee height: 895 km
right ascension of ascending node: 226.5360°
argument of perigee: 166.5577°
revolutions per day: 14.13775553
mean anomaly at epoch: 193.7397°
orbit number at epoch: 18501

The dashed part of the orbit path shows where the satellite is in the earth's shadow,  

DLR